Wind_Speed
13 13 13 12 12 12 11 10 10 9 9 9 9 8 8 7 8 8 8 8 9 9 10 10 11 11 11 11 11 11 11 11 10 10 10 10 10 10 11 11 11 10
14 14 14 13 12 12 12 11 11 11 11 11 11 10 10 9 9 9 9 9 9 9 10 10 11 11 10 11 11 11 11 10 10 10 10 10 10 10 11 11 11 11
15 15 14 14 13 13 12 12 12 13 13 13 12 12 11 11 11 10 10 10 10 10 10 11 11 11 11 10 11 11 11 11 10 10 11 10 10 10 10 10 11 11
15 15 15 14 14 14 14 13 14 14 13 13 13 13 13 12 12 11 11 11 11 11 11 11 11 11 11 11 11 11 11 11 10 10 11 11 11 10 10 10 10 10
16 15 15 15 15 15 15 14 14 14 13 13 13 12 12 12 12 12 12 12 11 11 12 12 12 12 12 11 11 11 11 11 11 10 10 11 11 11 10 10 10 10
16 16 16 16 16 16 16 16 15 14 14 13 13 12 12 12 12 12 12 12 12 11 12 12 12 12 12 12 11 11 11 11 10 10 10 10 11 11 11 11 11 11
18 17 17 17 17 17 17 17 16 16 15 14 13 12 12 11 11 12 12 12 12 12 12 12 12 12 11 11 11 10 10 10 9 9 10 10 10 11 11 11 11 11
20 19 19 19 19 18 18 18 18 17 16 16 15 14 13 13 12 12 12 12 12 12 12 12 12 12 11 11 10 10 10 10 9 9 9 9 9 10 10 11 11 11
22 22 21 21 21 20 20 19 19 18 18 17 17 16 16 15 15 14 14 13 13 13 13 13 12 12 11 11 10 11 11 10 10 10 10 10 9 9 10 10 10 10
22 22 23 23 23 23 22 21 20 19 19 19 19 18 18 17 17 16 16 15 14 14 13 13 13 12 11 11 11 11 11 11 11 10 10 10 10 10 10 10 10 10
22 22 23 24 25 25 24 23 22 21 21 20 20 20 19 19 19 18 18 17 17 16 16 15 14 14 13 12 13 13 12 12 12 11 11 11 11 11 11 12 11 11
23 23 24 25 25 26 25 24 24 23 23 22 21 21 21 20 20 20 20 19 19 19 18 18 17 16 16 15 15 15 14 14 13 13 13 13 13 13 13 13 13 13
26 25 25 26 26 26 26 25 25 25 24 23 23 23 22 22 22 21 21 21 21 20 20 19 19 18 18 17 17 17 16 16 15 15 15 15 15 15 15 15 15 15
29 28 28 27 27 27 27 26 26 26 25 25 24 24 24 24 23 23 23 23 22 22 21 21 20 20 19 18 18 18 18 17 16 16 16 16 16 16 16 17 17 17
29 30 30 30 29 29 28 27 27 26 26 26 25 25 25 25 25 25 25 24 24 23 22 22 21 21 20 19 19 19 19 19 18 17 17 17 16 17 17 17 17 18
28 29 30 31 31 31 30 29 28 27 27 27 27 27 27 27 27 27 27 26 26 25 24 23 23 22 21 21 20 21 20 20 20 19 18 18 18 18 18 18 18 19
29 29 29 29 30 31 31 32 31 30 29 28 28 28 28 28 29 28 28 28 27 27 26 25 24 23 23 23 22 22 22 21 21 21 20 20 20 20 20 19 19 20
31 30 29 28 29 30 31 33 34 33 32 31 31 30 30 30 30 30 29 29 28 28 27 26 25 25 26 25 24 24 24 23 23 23 23 23 22 22 22 22 21 21
34 33 33 32 32 31 32 34 36 36 35 34 33 33 32 32 31 31 31 30 29 29 28 26 26 27 28 27 26 26 26 25 25 25 25 25 24 24 24 24 24 23
36 37 37 36 37 36 36 36 36 35 35 35 35 35 34 34 34 33 32 31 31 30 28 27 28 29 29 28 28 27 27 27 27 26 27 27 26 26 26 25 25 25
37 37 36 36 37 38 38 39 39 38 36 36 37 36 35 35 35 35 35 34 33 31 29 29 30 30 30 29 29 28 28 27 27 27 28 27 27 27 27 26 26 26
37 36 35 34 34 35 36 38 41 43 40 39 39 40 39 39 37 36 36 36 35 32 31 31 31 31 30 30 29 28 28 27 27 28 28 28 28 28 28 28 27 27
37 37 36 35 34 34 35 35 38 41 41 41 42 43 43 42 40 37 38 38 36 34 33 33 32 31 31 31 30 30 29 28 28 28 28 28 29 29 30 29 29 28
34 34 35 35 34 34 34 34 35 36 37 39 43 46 46 44 40 38 37 37 36 36 35 35 35 33 33 32 31 31 30 30 30 30 30 30 30 31 31 30 30 29
28 28 30 32 31 31 31 30 30 32 33 35 37 43 47 45 41 39 38 36 36 36 36 36 36 35 34 33 33 33 32 32 32 32 32 33 33 32 32 32 31 30
29 26 26 28 28 28 26 24 23 24 26 25 24 29 38 42 41 39 39 37 37 36 36 36 36 36 36 35 34 34 33 33 33 33 34 34 34 34 34 33 32 31
Wind_Direction
185 183 187 193 198 201 202 202 199 195 196 197 196 192 188 189 189 187 186 186 187 187 187 186 186 187 189 192 197 200 202 203 207 212 216 218 222 226 229 232 233 234
190 188 187 190 193 198 202 205 206 205 205 205 203 199 196 196 197 197 196 195 195 197 199 199 200 201 203 205 210 215 218 220 222 226 229 231 235 237 239 241 243 243
193 194 193 191 191 193 198 202 205 207 207 206 204 202 201 201 200 202 204 203 202 205 207 209 211 212 214 217 221 226 230 232 234 237 241 243 244 245 245 245 247 249
198 198 198 197 196 195 196 199 202 204 204 205 204 203 203 204 203 205 209 210 210 212 215 217 220 222 224 227 231 235 239 242 245 247 250 251 252 251 250 249 250 251
203 202 202 202 202 200 200 201 203 202 201 202 204 204 205 206 206 207 211 214 216 219 222 225 228 230 232 235 238 241 245 249 251 254 256 257 258 257 255 253 253 254
210 207 206 208 207 206 206 206 206 205 202 202 203 205 208 209 209 210 212 214 218 222 225 228 231 234 236 239 242 245 248 250 252 254 256 258 260 261 260 258 256 256
215 212 211 212 213 211 210 210 209 208 207 206 204 205 209 211 213 215 216 216 216 220 224 228 230 233 236 239 243 246 248 250 252 253 254 256 259 262 262 261 260 259
218 216 215 216 217 216 213 212 211 210 210 210 208 207 209 212 214 215 218 219 220 221 222 225 228 230 233 237 241 244 246 248 250 251 253 256 258 261 262 262 262 263
220 219 217 218 220 220 218 215 213 211 212 213 213 212 211 212 213 214 216 218 220 223 223 225 226 227 230 234 238 243 246 247 247 249 251 254 257 260 262 264 265 265
223 222 221 221 221 222 222 220 217 214 213 215 215 216 215 215 216 216 217 218 220 223 224 226 228 228 229 233 236 241 244 247 249 250 251 253 255 258 261 265 266 266
226 226 226 225 225 225 225 223 222 219 217 217 218 218 219 219 220 220 221 221 222 223 224 226 228 230 231 234 237 239 241 244 248 251 253 255 255 257 259 261 263 264
228 229 231 231 230 230 230 228 227 225 222 220 221 221 222 222 223 223 224 224 225 225 225 225 227 228 230 232 236 239 241 243 246 249 253 255 256 257 257 258 258 259
231 230 232 234 234 234 234 233 232 232 229 226 225 225 225 225 226 227 227 227 227 227 227 227 228 229 230 231 234 238 240 243 245 248 251 253 255 257 257 258 258 258
237 234 233 234 236 236 236 234 234 235 234 233 231 230 229 230 230 231 231 231 230 230 230 230 231 232 233 234 236 238 241 243 245 247 249 251 254 256 257 258 259 259
241 239 237 235 236 237 238 236 235 235 236 236 235 234 233 233 233 234 234 235 235 235 234 234 234 235 236 237 239 241 243 245 247 249 250 252 254 256 259 260 261 262
240 241 240 238 237 238 239 239 238 237 236 237 237 237 236 236 236 236 237 238 239 239 238 238 238 239 239 240 241 244 246 249 251 254 255 257 259 260 262 263 264 266
238 241 242 241 240 239 240 241 240 239 238 238 238 239 239 238 238 238 238 239 240 242 242 242 242 242 241 242 244 246 248 251 255 257 259 261 262 262 263 264 265 266
241 242 243 244 244 242 241 242 241 239 239 238 239 239 240 240 240 240 240 240 241 242 243 244 244 244 244 244 246 247 249 252 254 257 259 261 262 263 263 263 263 264
244 243 243 244 244 243 241 241 241 240 239 239 239 240 240 241 242 242 242 242 242 243 244 245 245 245 245 245 246 248 249 251 253 254 256 258 259 261 262 263 263 263
246 246 245 245 245 245 244 243 243 243 242 242 241 241 241 242 243 243 243 243 243 243 244 245 245 246 247 246 246 247 249 251 252 253 255 256 257 258 259 261 262 263
247 248 248 247 248 249 249 247 245 243 242 242 242 241 240 240 241 242 243 242 243 242 243 244 246 246 247 248 247 248 249 251 253 254 256 257 258 259 259 259 260 262
245 247 248 248 247 248 250 249 247 244 240 240 241 240 239 239 238 238 240 241 242 242 241 243 245 246 248 250 250 251 251 252 253 255 257 259 260 261 260 260 260 261
244 246 247 247 246 245 246 246 246 245 242 241 242 241 239 240 238 236 237 240 241 241 241 242 243 244 246 249 251 252 253 254 254 256 257 258 259 260 260 260 260 262
246 246 246 246 245 245 245 244 246 247 246 246 247 245 242 242 241 239 239 240 241 241 241 241 241 242 243 246 248 250 252 253 254 255 256 256 257 258 259 260 262 263
246 245 243 241 240 240 242 244 247 248 247 248 250 247 244 242 241 241 242 241 241 241 241 241 241 241 241 243 245 248 250 252 254 256 257 257 257 257 258 260 261 263
244 246 244 238 236 237 239 241 245 247 245 247 252 250 245 242 240 241 243 243 241 241 241 242 242 241 242 243 244 247 250 254 256 258 258 259 258 257 257 258 260 262
Height
5951 5952 5953 5953 5954 5955 5956 5957 5958 5959 5960 5961 5961 5962 5963 5964 5965 5966 5966 5967 5968 5968 5969 5970 5971 5972 5972 5973 5973 5974 5975 5975 5976 5976 5977 5977 5977 5977 5977 5977 5977 5977
5951 5952 5952 5953 5954 5955 5956 5957 5958 5959 5960 5960 5961 5962 5963 5964 5965 5966 5967 5967 5968 5969 5970 5970 5971 5972 5973 5973 5974 5974 5975 5975 5976 5976 5976 5977 5977 5977 5977 5977 5977 5977
5951 5951 5952 5953 5954 5955 5956 5957 5957 5958 5959 5960 5961 5962 5963 5964 5965 5966 5967 5967 5968 5969 5970 5971 5971 5972 5973 5973 5974 5974 5975 5975 5975 5976 5976 5976 5976 5977 5977 5977 5977 5977
5950 5951 5952 5953 5953 5954 5955 5956 5957 5958 5959 5960 5961 5962 5962 5963 5964 5965 5966 5967 5968 5969 5970 5970 5971 5972 5972 5973 5973 5974 5974 5974 5975 5975 5975 5976 5976 5976 5976 5976 5977 5977
5950 5951 5952 5952 5953 5954 5954 5955 5956 5957 5958 5959 5960 5961 5962 5963 5964 5964 5965 5966 5967 5968 5969 5970 5971 5971 5972 5972 5973 5973 5973 5974 5974 5975 5975 5975 5975 5975 5976 5976 5976 5976
5949 5950 5951 5952 5952 5953 5953 5954 5955 5956 5957 5959 5960 5961 5962 5963 5963 5964 5965 5965 5966 5967 5968 5969 5970 5970 5971 5971 5972 5972 5973 5973 5973 5974 5974 5974 5974 5974 5975 5975 5975 5975
5948 5949 5950 5951 5951 5952 5952 5953 5954 5955 5956 5958 5959 5960 5961 5962 5963 5963 5964 5964 5965 5966 5967 5968 5968 5969 5970 5970 5971 5971 5972 5972 5972 5973 5973 5973 5973 5974 5974 5974 5975 5975
5947 5948 5949 5949 5950 5951 5951 5952 5953 5954 5955 5956 5957 5958 5959 5960 5961 5962 5963 5963 5964 5965 5966 5966 5967 5968 5969 5969 5970 5970 5970 5971 5971 5972 5972 5972 5973 5973 5973 5973 5974 5974
5946 5947 5947 5948 5949 5949 5950 5951 5952 5953 5954 5955 5956 5957 5958 5959 5960 5961 5961 5962 5963 5964 5965 5965 5966 5967 5967 5968 5968 5969 5969 5969 5970 5970 5971 5971 5972 5972 5972 5972 5973 5973
5944 5945 5946 5946 5947 5947 5949 5950 5950 5951 5952 5953 5954 5955 5956 5957 5958 5959 5960 5961 5962 5963 5964 5964 5965 5966 5966 5967 5967 5967 5968 5968 5969 5969 5970 5970 5971 5971 5971 5971 5972 5972
5943 5944 5944 5944 5945 5945 5947 5948 5949 5950 5951 5951 5952 5953 5954 5955 5956 5956 5957 5959 5960 5961 5962 5963 5964 5964 5965 5965 5966 5966 5966 5967 5968 5968 5969 5969 5969 5970 5970 5970 5970 5970
5941 5942 5942 5943 5943 5944 5945 5946 5947 5948 5949 5950 5951 5951 5952 5953 5954 5954 5955 5956 5957 5958 5959 5960 5961 5962 5963 5963 5964 5964 5965 5965 5966 5967 5967 5968 5968 5968 5968 5968 5968 5968
5938 5939 5940 5941 5942 5942 5943 5945 5946 5947 5947 5948 5949 5949 5950 5951 5952 5952 5953 5954 5955 5956 5957 5958 5959 5959 5960 5961 5962 5962 5963 5963 5964 5965 5965 5965 5965 5965 5966 5966 5966 5966
5936 5936 5937 5938 5939 5940 5941 5942 5943 5945 5945 5946 5947 5947 5948 5948 5949 5950 5951 5951 5952 5953 5954 5955 5956 5957 5958 5959 5960 5960 5961 5961 5962 5962 5962 5962 5962 5962 5962 5963 5963 5964
5933 5934 5934 5935 5936 5938 5939 5940 5941 5942 5943 5944 5944 5945 5945 5946 5946 5947 5948 5949 5950 5951 5952 5953 5954 5954 5956 5957 5958 5958 5959 5959 5960 5960 5960 5960 5960 5960 5960 5960 5961 5961
5929 5930 5931 5933 5934 5935 5937 5938 5939 5940 5941 5942 5942 5942 5942 5943 5944 5944 5945 5946 5947 5948 5950 5950 5951 5952 5953 5954 5955 5955 5956 5957 5957 5958 5958 5958 5958 5958 5958 5958 5959 5959
5927 5928 5929 5930 5931 5933 5934 5935 5936 5937 5938 5938 5939 5939 5940 5940 5940 5941 5942 5943 5944 5945 5947 5948 5949 5949 5950 5951 5952 5953 5953 5954 5955 5956 5956 5956 5956 5956 5956 5956 5957 5957
5924 5925 5926 5927 5929 5930 5931 5931 5931 5932 5933 5934 5935 5936 5937 5937 5938 5938 5939 5940 5941 5942 5944 5945 5947 5947 5947 5948 5949 5950 5950 5951 5952 5953 5953 5954 5954 5954 5954 5955 5955 5955
5920 5922 5923 5924 5925 5926 5926 5926 5927 5928 5930 5931 5932 5933 5934 5934 5935 5936 5937 5937 5938 5939 5941 5943 5944 5944 5944 5945 5946 5946 5947 5948 5949 5950 5950 5951 5951 5952 5952 5952 5952 5953
5916 5917 5918 5920 5921 5921 5922 5922 5924 5926 5927 5928 5929 5929 5930 5931 5932 5933 5933 5934 5935 5936 5938 5939 5940 5940 5941 5942 5942 5943 5944 5945 5946 5946 5947 5948 5948 5949 5949 5949 5950 5950
5911 5912 5914 5915 5916 5917 5918 5919 5921 5922 5923 5924 5925 5926 5926 5927 5928 5929 5930 5930 5931 5933 5935 5936 5936 5937 5938 5938 5939 5940 5941 5942 5943 5943 5944 5945 5946 5946 5946 5946 5946 5947
5908 5909 5910 5911 5912 5912 5914 5915 5915 5916 5918 5919 5919 5921 5921 5921 5923 5925 5926 5926 5927 5929 5932 5932 5933 5934 5935 5936 5937 5938 5938 5939 5940 5940 5941 5942 5942 5943 5943 5943 5943 5943
5903 5904 5906 5907 5908 5909 5909 5910 5910 5911 5913 5913 5914 5916 5916 5916 5918 5921 5922 5923 5924 5926 5928 5928 5929 5931 5932 5933 5934 5935 5935 5936 5937 5937 5937 5938 5939 5939 5939 5939 5939 5939
5898 5900 5901 5903 5904 5905 5906 5906 5906 5906 5907 5908 5909 5911 5911 5912 5914 5916 5918 5920 5921 5922 5923 5924 5925 5927 5928 5929 5930 5931 5932 5933 5933 5934 5934 5934 5935 5935 5935 5935 5936 5936
5895 5896 5897 5899 5900 5901 5901 5902 5903 5903 5903 5904 5905 5906 5906 5908 5910 5912 5914 5916 5917 5918 5919 5920 5921 5922 5923 5924 5926 5927 5928 5929 5929 5930 5931 5931 5931 5931 5931 5932 5933 5933
5892 5893 5894 5895 5896 5897 5898 5899 5900 5900 5900 5901 5901 5901 5901 5904 5906 5908 5910 5911 5912 5913 5914 5915 5917 5918 5919 5920 5921 5923 5924 5925 5925 5926 5926 5926 5927 5927 5927 5927 5928 5930